Location: Piotrkow Trybunalski
(51.4000°N, 19.6830°E)
Time: 06:42:54
(UTC+02:00)

STRAND 1 - Pass Details

Date: 27 February 2024
Orbit: 764 x 779 km, 98.4° (Epoch: 24 April)

Event Time Altitude Azimuth Distance (km) Brightness Sun altitude
Rises 02:51:54 0° 95° (E) 3,265 ? -33.9°
Reaches altitude 10° 02:56:24 10° 58° (ENE) 2,342 ? -33.3°
Maximum altitude 02:57:24 11° 47° (NE) 2,305 ? -33.1°
Drops below altitude 10° 02:58:23 10° 35° (NE) 2,344 ? -33.0°
Sets 03:02:54 0° 358° (N) 3,276 ? -32.4°
